Tracking 19293 objects as of 21-Nov-2018
HD Live streaming from Space Station
objects crossing your sky now

OBJECT PN

Track OBJECT PN now!
10-day predictions


NORAD ID: 43638
Int'l Code: 1998-067PN
Perigee: 406.9 km
Apogee: 411.7 km
Inclination: 51.6 °
Period: 92.6 minutes
Semi major axis: 6780 km
RCS: Unknown
Launch date: November 20, 1998
Source: (TBD)
Launch site: TYURATAM MISSILE AND SPACE COMPLEX (TTMTR)
aabbcc
Your satellite tracking list
Your tracking list is empty




NASA's NSSDC Master Catalog

Two Line Element Set (TLE):
1 43638U 98067PN  18324.51861118  .00007520  00000-0  11701-3 0  9990
2 43638  51.6394 319.3973 0003504  39.4729 320.6517 15.54998995  6975
Source of the keplerian elements: AFSPC